Starlink 30822

operational
NORAD ID: 58193 Int'l Des: 2023-167 Owner: SPXS Country: US Constellation: starlink
LEOCIRCULAR

About Starlink 30822

Description loading...

Live Position

Loading 3D Globe...

Upcoming Passes

Altitude History

Altitude vs Time

uPlot chart will show altitude changes over time

Two-Line Element Set

1 58193U 23167U 26034.17954730 .00000104 00000-0 22744-4 0 9994
2 58193 43.0033 333.4839 0000719 261.3636 98.7125 15.02533446125764
Epoch: Feb 3, 2026 • Age: 18 hours

Current Status

Altitude 562.1 km
Velocity 7.59 km/s
Sub-Earth Point 40.21°N, 24.22°W
Launch Date Oct 30, 2023
Age 2.2 years
Type internet

Technical Details

Classification Payload
Mass 730.00 kg
Dry Mass 700.00 kg
Total Mass 730.00 kg
Length 0.30 m
Diameter 4.10 m
Span 29.00 m
Shape Box + pan
Manufacturer SPXS
Bus Type Starlink V2M
Phase Status In Orbit
Owner/State SPXS/US

Large Constellations

Loading constellations...